Flag for Canada Weather past 2 weeks in Glace Bay, Nova Scotia, Canada

Now
32 °F

Snow flurries. Mostly cloudy.


Feels Like: 21 °F
Forecast: 35 / 37 °F
Wind: 17 mph from North

Location: Sydney

Current Time: Dec 19, 2014 at 10:28:18 PM

Latest Report: Dec 19, 2014 at 9:00 PM


Visibility: 3 mi

Pressure: 29.79 "Hg

Humidity: 93%

Dew point: 30 °F

Location of Glace BayLocation

Historic Weather in Glace Bay — Graph

°F

Glace Bay temperature yesterday

Maximum temperature yesterday: 45 °F (at 9:00 AM)
Minimum temperature yesterday: 36 °F (at 12:00 AM)
Average temperature yesterday: 41 °F

Past Weeks' High & Low Weather Summary

 TemperatureHumidityPressure
High50 °F (Dec 11, 2:46 PM)100% (Dec 6, 9:00 PM)30.81 "Hg (Dec 6, 9:00 PM)
Low10 °F (Dec 9, 1:00 AM)54% (Dec 5, 11:00 AM)29.40 "Hg (Dec 19, 1:00 AM)
Average35 °F89%30.05 "Hg
* Reported Dec 4 9:00 PM — Dec 19 9:00 PM, Glace Bay, Weather by CustomWeather, © 2014

Note: Actual official high and low records may vary slightly from our data, if they occured in-between our weather recording intervals... More about our weather records

Advertising

Glace Bay weather history for previous 24 hours

 ConditionsComfort  
Time TempWeatherWind HumidityBarometerVisibility
9:00 PM
Dec 19
32 °FSnow flurries. Mostly cloudy.17 mph93%29.79 "Hg3 mi
8:45 PM32 °FSnow flurries. Low clouds.16 mph93%29.78 "Hg1 mi
8:00 PM32 °FSnow flurries. Low clouds.14 mph100%29.76 "Hg4 mi
7:00 PM32 °FSnow flurries. Low clouds.15 mph100%29.72 "Hg3 mi
6:51 PM32 °FSnow flurries. Mostly cloudy.15 mph100%29.72 "Hg1 mi
6:00 PM34 °FSnow flurries. Mostly cloudy.10 mph93%29.68 "Hg6 mi
5:52 PM34 °FSprinkles. Overcast.10 mph87%29.68 "Hg4 mi
5:00 PM36 °FPartly cloudy.10 mph87%29.65 "Hg15 mi
4:00 PM36 °FSprinkles. Partly sunny.9 mph93%29.61 "Hg10 mi
3:00 PM36 °FSprinkles. Fog.12 mph93%29.58 "Hg5 mi
2:00 PM39 °FCloudy.13 mph87%29.54 "Hg15 mi
1:00 PM39 °FPartly sunny.12 mph87%29.51 "Hg15 mi
12:00 PM39 °FBroken clouds.15 mph87%29.51 "Hg15 mi
11:00 AM37 °FPartly sunny.14 mph93%29.49 "Hg15 mi
10:00 AM36 °FPartly sunny.10 mph93%29.49 "Hg15 mi
9:00 AM34 °FSnow flurries. Partly sunny.9 mph93%29.46 "Hg10 mi
8:00 AM32 °FPartly sunny.10 mph100%29.45 "Hg10 mi
7:00 AM32 °FPartly cloudy.8 mph93%29.43 "Hg15 mi
6:00 AM32 °FPassing clouds.8 mph93%29.41 "Hg15 mi
5:00 AM32 °FPassing clouds.9 mph93%29.41 "Hg15 mi
4:00 AM34 °FPassing clouds.8 mph93%29.40 "Hg15 mi
3:00 AM34 °FPassing clouds.8 mph93%29.40 "Hg15 mi
2:00 AM36 °FPassing clouds.9 mph93%29.40 "Hg15 mi
1:00 AM37 °FPassing clouds.8 mph93%29.40 "Hg15 mi
12:00 AM41 °FSprinkles. Overcast.7 mph93%29.40 "Hg10 mi
11:00 PM
Dec 18
41 °FMostly cloudy.3 mph100%29.41 "Hg10 mi
10:00 PM41 °FSprinkles. Mostly cloudy.3 mph100%29.44 "Hg10 mi
Weather by CustomWeather, © 2014

See weather overviewHow to use our weather pages